This is the latest recevied weather packets stored in our database for station/object OZ1IEP-5. If no packets are shown the sender has not sent any weather packets the latest 10 day(s).
| Time | Temp. | Humidity | Pressure | Rain* | Wind** | Luminosity | Snow |
|---|---|---|---|---|---|---|---|
| 1787688605 | 15.56° C | 76% | 1020.8 hPa | 0 mm | - | 0 W/m² | - |
| 1787688008 | 15.56° C | 76% | 1020.8 hPa | 0 mm | - | 0 W/m² | - |
| 1787687406 | 16.11° C | 77% | 1020.8 hPa | 0 mm | - | 0 W/m² | - |
| 1787686806 | 16.11° C | 77% | 1020.6 hPa | 0 mm | - | 0 W/m² | - |
| 1787686209 | 16.67° C | 76% | 1020.7 hPa | 0 mm | - | 0 W/m² | - |
| 1787685606 | 17.22° C | 76% | 1020.5 hPa | 0 mm | - | 0 W/m² | - |
| 1787685006 | 17.78° C | 74% | 1020.4 hPa | 0 mm | - | 0 W/m² | - |
| 1787684419 | 17.78° C | 73% | 1020.4 hPa | 0 mm | - | 0 W/m² | - |
| 1787683806 | 18.33° C | 72% | 1020.3 hPa | 0 mm | - | 0 W/m² | - |
| 1787683206 | 18.33° C | 70% | 1020 hPa | 0 mm | - | 0 W/m² | - |
| 1787682609 | 18.89° C | 66% | 1019.9 hPa | 0 mm | - | 0 W/m² | - |
| 1787682006 | 18.89° C | 62% | 1019.9 hPa | 0 mm | - | 5 W/m² | - |
| 1787681405 | 19.44° C | 60% | 1019.6 hPa | 0 mm | - | 9 W/m² | - |
| 1787680808 | 19.44° C | 55% | 1019.5 hPa | 0 mm | - | 12 W/m² | - |
| 1787680206 | 19.44° C | 53% | 1019.4 hPa | 0 mm | - | 16 W/m² | - |
| 1787679605 | 20° C | 53% | 1019.4 hPa | 0 mm | - | 25 W/m² | - |
| 1787679009 | 20° C | 52% | 1019.4 hPa | 0 mm | - | 26 W/m² | - |
| 1787678406 | 20° C | 51% | 1019.4 hPa | 0 mm | - | 40 W/m² | - |
| 1787677806 | 20.56° C | 50% | 1019.4 hPa | 0 mm | - | 35 W/m² | - |
| 1787677208 | 20.56° C | 50% | 1019.4 hPa | 0 mm | - | 35 W/m² | - |
| 1787676606 | 20.56° C | 48% | 1019.3 hPa | 0 mm | - | 33 W/m² | - |
| 1787676005 | 21.11° C | 47% | 1019.3 hPa | 0 mm | - | 37 W/m² | - |
| 1787675408 | 21.11° C | 46% | 1019.3 hPa | 0 mm | - | 40 W/m² | - |
| 1787674806 | 21.11° C | 47% | 1019.3 hPa | 0 mm | - | 39 W/m² | - |
| 1787674206 | 21.67° C | 46% | 1019.3 hPa | 0 mm | - | 40 W/m² | - |
* Rain latest hour (hover to see other rain measurements)
** Current wind speed in m/s (hover to see current wind gust speed)